Wahoo, NE

2:51 AM CDT on April 22, 2018 (GMT -0500)
Wahoo Municipal

Weather History for KAHQ - February, 2014

Change the Weather History Date:

Tuesday, February 18, 2014

  Actual Average Record
Temperature  
Mean Temperature 50 °F -  
Max Temperature 66 °F 41 °F 68 °F (1981)
Min Temperature 34 °F 18 °F -16 °F (1978)
Degree Days  
Heating Degree Days 15    
Moisture  
Dew Point 20 °F    
Average Humidity 36    
Maximum Humidity 66    
Minimum Humidity 14    
Precipitation  
Precipitation 0.00 in - - ()
Sea Level Pressure  
Sea Level Pressure 29.74 in    
Wind  
Wind Speed 13 mph (West)    
Max Wind Speed 29 mph    
Max Gust Speed 38 mph    
Visibility 10 miles    
Events      
Averages and records for this station are not official NWS values.
T = Trace of Precipitation, MM = Missing Value Source: NWS Daily Summary

Daily Weather History Graph

Daily Weather History Graph

Search for Another Location

Airport or City:

Astronomy

Feb. 18, 2014 Rise Set
Actual Time 7:16 AM CST 6:04 PM CST
Civil Twilight 6:48 AM CST 6:32 PM CST
Nautical Twilight 6:16 AM CST 7:04 PM CST
Astronomical Twilight 5:44 AM CST 7:36 PM CST
Moon 10:01 PM CST (2/18) 8:47 AM CST (2/18)
Length of Visible Light 11h 43m
Length of Day
10h 47m
Waning Gibbous, 87% of the Moon is Illuminated
Feb 18
Waning Gibbous
Feb 22
Last Quarter
Mar 1
New
Mar 8
First Quarter
Mar 16
Full

Hourly Weather History & Observations

Time (CST) Temp. Windchill Dew Point Humidity Pressure Visibility Wind Dir Wind Speed Gust Speed Precip Events Conditions
12:15 AM 34.5 °F 29.4 °F 19.2 °F 54% 29.80 in 10.0 mi South 5.8 mph - N/A   Clear
12:35 AM 34.0 °F 28.8 °F 19.0 °F 54% 29.80 in 10.0 mi South 5.8 mph - N/A   Clear
12:55 AM 39.2 °F 32.0 °F 19.6 °F 45% 29.79 in 10.0 mi SSW 11.5 mph - N/A   Clear
1:15 AM 40.5 °F 33.2 °F 18.9 °F 42% 29.77 in 10.0 mi SW 12.7 mph - N/A   Clear
1:35 AM 40.5 °F 33.6 °F 19.0 °F 42% 29.75 in 10.0 mi SSW 11.5 mph - N/A   Clear
1:55 AM 40.8 °F 34.1 °F 19.2 °F 42% 29.74 in 10.0 mi SSW 11.5 mph - N/A   Clear
2:15 AM 40.3 °F 32.2 °F 19.4 °F 43% 29.73 in 10.0 mi SSW 15.0 mph - N/A   Clear
2:35 AM 40.1 °F 32.4 °F 19.9 °F 44% 29.72 in 10.0 mi SSW 13.8 mph - N/A   Clear
2:55 AM 39.4 °F 31.4 °F 20.3 °F 46% 29.72 in 10.0 mi SSW 13.8 mph - N/A   Clear
3:15 AM 39.6 °F 33.5 °F 20.7 °F 47% 29.71 in 10.0 mi SW 9.2 mph - N/A   Clear
3:35 AM 39.7 °F 32.7 °F 21.0 °F 47% 29.70 in 10.0 mi SSW 11.5 mph - N/A   Clear
3:55 AM 41.2 °F 33.7 °F 20.8 °F 44% 29.68 in 10.0 mi SSW 13.8 mph - N/A   Clear
4:15 AM 42.4 °F 34.7 °F 20.3 °F 41% 29.67 in 10.0 mi SSW 16.1 mph 23.0 mph N/A   Clear
4:35 AM 42.1 °F 33.9 °F 20.7 °F 42% 29.66 in 10.0 mi SSW 17.3 mph - N/A   Clear
4:55 AM 41.7 °F 33.4 °F 20.8 °F 43% 29.66 in 10.0 mi SW 17.3 mph - N/A   Clear
5:15 AM 41.4 °F 33.3 °F 20.8 °F 44% 29.65 in 10.0 mi SW 16.1 mph 23.0 mph N/A   Clear
5:35 AM 41.4 °F 34.0 °F 21.0 °F 44% 29.65 in 10.0 mi SW 13.8 mph - N/A   Clear
5:55 AM 41.9 °F 34.3 °F 21.0 °F 43% 29.66 in 10.0 mi SW 15.0 mph 21.9 mph N/A   Clear
6:15 AM 41.9 °F 34.3 °F 20.7 °F 43% 29.65 in 10.0 mi SW 15.0 mph - N/A   Clear
6:35 AM 42.3 °F 35.1 °F 20.3 °F 42% 29.65 in 10.0 mi SW 13.8 mph - N/A   Clear
6:55 AM 42.3 °F 34.4 °F 20.1 °F 41% 29.65 in 10.0 mi WSW 16.1 mph 20.7 mph N/A   Clear
7:15 AM 42.4 °F 35.0 °F 19.9 °F 41% 29.65 in 10.0 mi WSW 15.0 mph - N/A   Clear
7:35 AM 42.4 °F 35.3 °F 19.8 °F 40% 29.65 in 10.0 mi WSW 13.8 mph - N/A   Clear
7:55 AM 43.5 °F 37.1 °F 19.8 °F 39% 29.65 in 10.0 mi SW 12.7 mph - N/A   Clear
8:15 AM 43.9 °F 36.8 °F 19.4 °F 38% 29.65 in 10.0 mi WSW 15.0 mph 19.6 mph N/A   Clear
8:35 AM 44.6 °F 38.1 °F 19.4 °F 37% 29.65 in 10.0 mi WSW 13.8 mph - N/A   Clear
8:55 AM 46.4 °F 40.4 °F 19.2 °F 34% 29.65 in 10.0 mi WSW 13.8 mph 17.3 mph N/A   Clear
9:15 AM 47.3 °F - 19.0 °F 33% 29.64 in 10.0 mi WSW 12.7 mph 18.4 mph N/A   Clear
9:35 AM 48.0 °F - 19.2 °F 32% 29.63 in 10.0 mi WSW 11.5 mph - N/A   Clear
9:55 AM 50.2 °F - 18.9 °F 29% 29.64 in 10.0 mi WSW 15.0 mph - N/A   Clear
10:15 AM 53.1 °F - 19.0 °F 26% 29.65 in 10.0 mi WSW 13.8 mph 18.4 mph N/A   Clear
10:35 AM 55.4 °F - 18.5 °F 24% 29.65 in 10.0 mi WSW 16.1 mph 20.7 mph N/A   Clear
10:55 AM 57.2 °F - 17.2 °F 21% 29.65 in 10.0 mi WSW 16.1 mph 21.9 mph N/A   Clear
11:15 AM 58.8 °F - 17.8 °F 20% 29.64 in 10.0 mi West 15.0 mph 20.7 mph N/A   Clear
11:35 AM 59.9 °F - 17.6 °F 19% 29.65 in 10.0 mi North - - N/A   Clear
11:55 AM 60.8 °F - 17.6 °F 19% 29.64 in 10.0 mi West 11.5 mph - N/A   Clear
12:15 PM 61.9 °F - 17.6 °F 18% 29.64 in 10.0 mi West 13.8 mph - N/A   Clear
12:35 PM 63.1 °F - 16.9 °F 17% 29.63 in 10.0 mi WSW 11.5 mph - N/A   Clear
12:55 PM 63.9 °F - 15.6 °F 15% 29.63 in 10.0 mi West 12.7 mph 21.9 mph N/A   Clear
1:15 PM 61.0 °F - 17.2 °F 18% 29.64 in 10.0 mi West 16.1 mph 21.9 mph N/A   Clear
1:35 PM 59.0 °F - 18.0 °F 20% 29.64 in 10.0 mi West 13.8 mph - N/A   Clear
1:55 PM 62.1 °F - 18.0 °F 18% 29.64 in 10.0 mi West 15.0 mph - N/A   Clear
2:15 PM 63.9 °F - 16.5 °F 16% 29.64 in 10.0 mi West 15.0 mph 24.2 mph N/A   Clear
2:35 PM 65.3 °F - 17.2 °F 16% 29.64 in 10.0 mi WNW 17.3 mph 24.2 mph N/A   Clear
2:55 PM 65.7 °F - 16.2 °F 15% 29.64 in 10.0 mi WNW 19.6 mph 24.2 mph N/A   Clear
3:15 PM 66.0 °F - 15.1 °F 14% 29.65 in 10.0 mi WNW 28.8 mph 32.2 mph N/A   Clear
3:35 PM 65.1 °F - 15.8 °F 15% 29.67 in 10.0 mi NW 24.2 mph 28.8 mph N/A   Clear
3:55 PM 62.2 °F - 19.4 °F 19% 29.69 in 10.0 mi NNW 28.8 mph 38.0 mph N/A   Clear
4:15 PM 60.8 °F - 21.0 °F 22% 29.71 in 10.0 mi NNW 25.3 mph 33.4 mph N/A   Clear
4:35 PM 59.5 °F - 22.8 °F 24% 29.73 in 10.0 mi NNW 25.3 mph 32.2 mph N/A   Clear
4:55 PM 58.1 °F - 23.7 °F 27% 29.75 in 10.0 mi NNW 25.3 mph 34.5 mph N/A   Clear
5:15 PM 56.3 °F - 24.6 °F 29% 29.77 in 10.0 mi NNW 27.6 mph 34.5 mph N/A   Clear
5:35 PM 53.6 °F - 24.8 °F 33% 29.80 in 10.0 mi NNW 13.8 mph 25.3 mph N/A   Clear
5:55 PM 51.6 °F - 24.8 °F 35% 29.82 in 10.0 mi NW 13.8 mph - N/A   Clear
6:15 PM 50.0 °F - 24.6 °F 37% 29.84 in 10.0 mi NNW 12.7 mph - N/A   Clear
6:35 PM 46.6 °F - 24.8 °F 43% 29.85 in 10.0 mi NW 9.2 mph - N/A   Clear
6:55 PM 43.7 °F 39.7 °F 24.3 °F 46% 29.86 in 10.0 mi NW 6.9 mph - N/A   Clear
7:15 PM 41.9 °F 36.9 °F 23.7 °F 49% 29.88 in 10.0 mi WNW 8.1 mph - N/A   Clear
7:35 PM 41.9 °F 36.9 °F 23.7 °F 49% 29.88 in 10.0 mi WNW 8.1 mph - N/A   Clear
7:55 PM 42.8 °F 37.0 °F 23.4 °F 46% 29.88 in 10.0 mi WNW 10.4 mph - N/A   Clear
8:15 PM 41.0 °F 34.3 °F 22.6 °F 48% 29.89 in 10.0 mi WNW 11.5 mph - N/A   Clear
8:35 PM 45.0 °F 37.6 °F 20.3 °F 38% 29.90 in 10.0 mi NW 17.3 mph - N/A   Clear
8:55 PM 43.0 °F 35.7 °F 19.8 °F 40% 29.91 in 10.0 mi NW 15.0 mph - N/A   Clear
9:15 PM 43.0 °F 35.4 °F 19.6 °F 39% 29.92 in 10.0 mi NW 16.1 mph - N/A   Clear
9:35 PM 42.3 °F 35.1 °F 20.7 °F 42% 29.93 in 10.0 mi NW 13.8 mph - N/A   Clear
9:55 PM 41.4 °F 34.3 °F 21.2 °F 45% 29.94 in 10.0 mi NW 12.7 mph - N/A   Clear
10:15 PM 39.9 °F 32.9 °F 21.9 °F 49% 29.95 in 10.0 mi NW 11.5 mph - N/A   Clear
10:35 PM 39.6 °F 32.1 °F 22.8 °F 51% 29.95 in 10.0 mi WNW 12.7 mph - N/A   Clear
10:55 PM 39.9 °F 32.5 °F 24.1 °F 53% 29.95 in 10.0 mi NW 12.7 mph - N/A   Clear
11:15 PM 39.4 °F 31.1 °F 25.2 °F 57% 29.95 in 10.0 mi NW 15.0 mph - N/A   Clear
11:55 PM 34.9 °F 27.7 °F 24.4 °F 66% 29.95 in 10.0 mi WNW 9.2 mph - N/A   Clear